Weather in Fukue

Japan     32°41′11″N   128°50′43″E
temp.,
°C
wind,
m/s
gust,
m/s
humid.,
%
clouds,
%
prec.,
mm/h
press.,
hPa
HPBL,
m
16 april, fri
fri1600:00+14se235498 0.0 1019166
03:00+16se5769100 0.0 1018693
06:00+15se7987100 0.8 1018541
09:00+15se81175100 2.9 1018873
12:00+16sse7108385 0.3 1018720
15:00+16se5990100 1.4 1017620
18:00+16sse71086100 1.6 1017502
21:00+16se7987100 1.6 1018405
17 april, sat
sat1700:00+16s5890100 0.0 1017452
03:00+17wsw5785100 0.1 1016532
06:00+15sw5581100 1.1 1015412
09:00+16wsw5774100 1.3 1016787
12:00+17w91074100 0.0 1016987
15:00+17wnw101170100 0.0 10141329
18:00+15nw121443100 0.0 10161489
21:00+13nw11124899 0.0 10181605
18 april, sun
sun1800:00+13wnw11134890 0.0 10181812
03:00+13nw1214565 0.0 10171704
06:00+12nw1114595 0.0 10181665
09:00+13nw1114575 0.0 10181513
12:00+14nw1114532 0.0 10181474
15:00+15nw1214512 0.0 10171464
18:00+15nw1011510 0.0 10171310
21:00+14nw89500 0.0 1018984
19 april, mon
mon1900:00+14nw785059 0.0 1018883
03:00+14nw78520 0.0 1017812
06:00+14nw78510 0.0 1017761
09:00+15nw78470 0.0 1018843
12:00+15nw89480 0.0 1018884
15:00+16nnw78500 0.0 1017660
18:00+16nw56530 0.0 1017578
21:00+15nw56560 0.0 1019512
20 april, tue
tue2000:00+16nw56570 0.0 1019458
03:00+15nw34580 0.0 1019398
06:00+15nw34590 0.0 1020396
09:00+16nnw34560 0.0 1021423
12:00+17nnw43540 0.0 1021438
15:00+18nnw325240 0.0 1020377
18:00+17nnw33573 0.0 1020204
21:00+16wnw12600 0.0 1022140